Location: Del Amo
(33.8464°N, 118.2104°W)
Time: 08:29:01
(UTC+00:00)

Vanguard 1 Rocket - Pass Details

Date: 18 September 2024
Orbit: 650 x 4218 km, 34.3° (Epoch: 09 October)

Event Time Altitude Azimuth Distance (km) Brightness Sun altitude
Rises 08:51:58 0° 215° (SW) 4,179 - -51.4°
Reaches altitude 10° 08:54:26 10° 207° (SSW) 3,525 - -51.1°
Maximum altitude 09:03:17 43° 139° (SE) 2,784 - -50.2°
Exits shadow 09:06:43 38° 109° (ESE) 3,303 10.1 -49.9°
Drops below altitude 10° 09:19:36 10° 76° (ENE) 6,363 12.0 -48.4°
Sets 09:25:56 0° 71° (ENE) 7,854 12.7 -47.6°
